Location: Newark
(55.7083°N, 13.1992°E)
Time: 01:00:22
(UTC+00:00)

N. Korean satellite - Pass Details

Date: 25 January 2020
Orbit: 456 x 505 km, 97.2° (Epoch: 26 February)

Event Time Altitude Azimuth Distance (km) Brightness Sun altitude
Rises 05:39:45 0° 10° (N) 2,530 10.2 -12.9°
Reaches altitude 10° 05:41:50 10° 5° (N) 1,655 9.2 -12.6°
Maximum altitude 05:45:16 48° 291° (WNW) 637 6.7 -12.1°
Drops below altitude 10° 05:48:44 10° 215° (SW) 1,669 9.1 -11.7°
Sets 05:50:51 0° 210° (SSW) 2,554 10.1 -11.4°
